User: anonymous   Login
Location: Bothell
(47.7630°N, 122.2040°W)
Time: 05:29:00
(UTC-07:00)
Language:

Oscar 16 - Orbit

View from above orbital plane
View from above orbital plane
View from above satellite
View from above satellite

Ground track
Ground track

The orbit data is extracted from the following two-line orbital elements,

1 20439U 90005D   14305.08555679  .00000185  00000-0  84283-4 0  1625
2 20439 098.5186 239.9076 0012062 113.6292 312.5284 14.32416472294080
Epoch (UTC): 01 November 2014 02:03:12
Eccentricity: 0.0012062
inclination: 98.5186°
perigee height: 775 km
apogee height: 792 km
right ascension of ascending node: 239.9076°
argument of perigee: 113.6292°
revolutions per day: 14.32416472
mean anomaly at epoch: 312.5284°
orbit number at epoch: 29408

The dashed part of the orbit path shows where the satellite is in the earth's shadow,  

DLR